Regional Weather Roundup
Issued by NWS

Home | Current Version | Previous Version | Text Only | Print | Product List | Glossary Off
Versions: 1 2 3 4 5 6 7 8 9 10 11 12 13 14 15 16 17 18 19 20 21 22 23 24 25 26 27 28 29 30 31 32 33 34 35 36 37 38 39 40 41 42 43 44 45 46 47 48 49 50

000
ASUS43 KBIS 281302
RWRND

NORTH DAKOTA REGIONAL WEATHER ROUNDUP
NATIONAL WEATHER SERVICE BISMARCK ND
800 AM CDT WED JUN 28 2017

NOTE: "FAIR" INDICATES FEW OR NO CLOUDS BELOW 12,000 FEET WITH NO
SIGNIFICANT WEATHER AND/OR OBSTRUCTIONS TO VISIBILITY.


NDZ001>003-009>011-017-281400-
NORTHWEST NORTH DAKOTA

CITY           SKY/WX    TMP DP  RH WIND       PRES   REMARKS
WILLISTON      SUNNY     58  43  57 CALM      29.75R
MINOT          PTSUNNY   62  49  62 NW18      29.64R
MINOT AFB      CLOUDY    59  48  66 NW15      29.63R
$$

NDZ018>021-031>035-040>046-281400-
SOUTHWEST NORTH DAKOTA

CITY           SKY/WX    TMP DP  RH WIND       PRES   REMARKS
BISMARCK       CLOUDY    64  59  83 NW13G23   29.62R
DICKINSON      SUNNY     58  49  72 NW13      29.72S
GARRISON         N/A     61  49  64 N14G21    29.65R
HETTINGER ARPT SUNNY     62  53  72 NW14      29.74S
$$

NDZ004>008-012>016-024-026-027-054-281400-
NORTHEAST NORTH DAKOTA

CITY           SKY/WX    TMP DP  RH WIND       PRES   REMARKS
GRAND FORKS    TSTM      61  61 100 NE13      29.51F FOG
GRND FRKS AFB  RAIN      61  61 100 NE8       29.50F FOG
DEVILS LAKE    LGT RAIN  63  62  97 NW14      29.54F
$$

NDZ022-023-025-028>030-036>039-047>053-281400-
SOUTHEAST NORTH DAKOTA

CITY           SKY/WX    TMP DP  RH WIND       PRES   REMARKS
FARGO          CLOUDY    69  62  78 S18G25    29.45F
JAMESTOWN      CLOUDY    63  59  87 N10       29.51F
$$





USA.gov is the U.S. government's official web portal to all federal, state and local government web resources and services.